Weather History for K9D7 - January, 2014

Change the Weather History Date:

Monday, January 13, 2014

  Actual Average Record
Temperature  
Mean Temperature 10 °F -  
Max Temperature 19 °F - - ()
Min Temperature 1 °F - - ()
Degree Days  
Heating Degree Days 55    
Moisture  
Dew Point 9 °F    
Average Humidity 83    
Maximum Humidity 93    
Minimum Humidity 73    
Precipitation  
Precipitation 0.08 in - - ()
Sea Level Pressure  
Sea Level Pressure 29.56 in    
Wind  
Wind Speed 13 mph (West)    
Max Wind Speed 24 mph    
Max Gust Speed 30 mph    
Visibility 9 miles    
Events Snow    
T = Trace of Precipitation, MM = Missing Value Source: NWS Daily Summary

Daily Weather History Graph

Daily Weather History Graph

Search for Another Location

Airport or City:

Trip Planner

Search our weather history database for the weather conditions in past years. The results will help you decide how hot, cold, wet, or windy it might be!

Date:

Astronomy

Jan. 13, 2014 Rise Set
Actual Time 8:24 AM CST 5:06 PM CST
Civil Twilight 7:49 AM CST 5:42 PM CST
Nautical Twilight 7:10 AM CST 6:21 PM CST
Astronomical Twilight 6:32 AM CST 6:59 PM CST
Moon 3:24 PM CST (1/13) 6:13 AM CST (1/13)
Length of Visible Light 9h 53m
Length of Day
8h 42m
Waxing Gibbous, 95% of the Moon is Illuminated
Jan 13
Waxing Gibbous
Jan 15
Full
Jan 23
Last Quarter
Jan 30
New
Feb 6
First Quarter

Hourly Weather History & Observations

Time (CST) Temp. Windchill Dew Point Humidity Pressure Visibility Wind Dir Wind Speed Gust Speed Precip Events Conditions
12:15 AM 19.4 °F 3.6 °F 15.8 °F 86% 29.56 in 10.0 mi WNW 19.6 mph - N/A   Overcast
12:35 AM 19.4 °F 3.6 °F 15.8 °F 86% 29.56 in 10.0 mi WNW 19.6 mph 25.3 mph N/A   Overcast
12:55 AM 19.4 °F 3.2 °F 15.8 °F 86% 29.56 in 10.0 mi West 20.7 mph 25.3 mph N/A   Overcast
1:15 AM 19.4 °F 2.1 °F 15.8 °F 86% 29.57 in 10.0 mi West 24.2 mph 28.8 mph N/A   Overcast
1:35 AM 17.6 °F 0.1 °F 14.0 °F 86% 29.57 in 10.0 mi West 23.0 mph 29.9 mph N/A   Overcast
1:55 AM 17.6 °F -0.3 °F 14.0 °F 86% 29.57 in 10.0 mi West 24.2 mph - N/A   Overcast
2:15 AM 17.6 °F -0.3 °F 12.2 °F 79% 29.58 in 10.0 mi West 24.2 mph 28.8 mph N/A   Overcast
2:35 AM 15.8 °F -2.7 °F 12.2 °F 86% 29.59 in 10.0 mi WNW 24.2 mph - N/A   Overcast
2:55 AM 15.8 °F -1.5 °F 10.4 °F 79% 29.59 in 10.0 mi West 20.7 mph - N/A   Overcast
3:15 AM 14.0 °F -3.0 °F 8.6 °F 79% 29.59 in 10.0 mi WNW 18.4 mph - N/A   Overcast
3:35 AM 14.0 °F -1.4 °F 8.6 °F 79% 29.59 in 10.0 mi West 15.0 mph - N/A   Overcast
3:55 AM 14.0 °F -2.0 °F 8.6 °F 79% 29.60 in 10.0 mi West 16.1 mph - N/A   Overcast
4:15 AM 12.2 °F -5.8 °F 8.6 °F 85% 29.59 in 10.0 mi WNW 19.6 mph - N/A   Overcast
4:35 AM 12.2 °F -4.8 °F 8.6 °F 85% 29.60 in 10.0 mi WNW 17.3 mph - N/A   Overcast
4:55 AM 12.2 °F -5.3 °F 8.6 °F 85% 29.60 in 10.0 mi WNW 18.4 mph - N/A   Overcast
5:15 AM 12.2 °F -4.3 °F 6.8 °F 79% 29.59 in 10.0 mi WNW 16.1 mph - N/A   Overcast
5:35 AM 10.4 °F -6.0 °F 6.8 °F 85% 29.60 in 10.0 mi WNW 15.0 mph - N/A   Overcast
5:55 AM 10.4 °F -6.6 °F 6.8 °F 85% 29.60 in 10.0 mi WNW 16.1 mph - N/A   Overcast
6:15 AM 8.6 °F -7.0 °F 5.0 °F 85% 29.60 in 10.0 mi WNW 12.7 mph - N/A   Overcast
6:35 AM 6.8 °F -5.9 °F 3.2 °F 85% 29.61 in 10.0 mi West 8.1 mph - N/A   Overcast
6:55 AM 5.0 °F -8.1 °F 1.4 °F 85% 29.59 in 10.0 mi WNW 8.1 mph - N/A   Scattered Clouds
7:15 AM 5.0 °F -5.6 °F 1.4 °F 85% 29.59 in 10.0 mi West 5.8 mph - N/A   Clear
7:35 AM 3.2 °F -6.2 °F -0.4 °F 85% 29.59 in 10.0 mi West 4.6 mph - N/A   Clear
7:55 AM 1.4 °F -11.3 °F -0.4 °F 92% 29.59 in 10.0 mi West 6.9 mph - N/A   Clear
8:15 AM 3.2 °F -4.2 °F -0.4 °F 85% 29.59 in 10.0 mi WNW 3.5 mph - N/A   Clear
8:35 AM 1.4 °F - -0.4 °F 92% 29.59 in 10.0 mi Calm Calm - N/A   Scattered Clouds
8:55 AM 1.4 °F -8.3 °F -0.4 °F 92% 29.59 in 10.0 mi West 4.6 mph - N/A   Partly Cloudy
9:15 AM 1.4 °F -8.3 °F -0.4 °F 92% 29.60 in 10.0 mi WSW 4.6 mph - N/A   Clear
9:35 AM 1.4 °F -9.9 °F -2.2 °F 85% 29.60 in 10.0 mi WSW 5.8 mph - N/A   Partly Cloudy
9:55 AM 3.2 °F - -0.4 °F 85% 29.60 in 10.0 mi Calm Calm - N/A   Clear
10:15 AM 5.0 °F -4.1 °F 1.4 °F 85% 29.60 in 10.0 mi West 4.6 mph - N/A   Clear
10:35 AM 6.8 °F -2.0 °F 1.4 °F 79% 29.60 in 10.0 mi West 4.6 mph - N/A   Clear
10:55 AM 8.6 °F 0.1 °F 1.4 °F 73% 29.59 in 10.0 mi West 4.6 mph - N/A   Scattered Clouds
11:15 AM 8.6 °F - 3.2 °F 79% 29.59 in 10.0 mi Calm Calm - N/A   Partly Cloudy
11:35 AM 10.4 °F - 3.2 °F 73% 29.59 in 10.0 mi Calm Calm - N/A   Scattered Clouds
11:55 AM 10.4 °F - 5.0 °F 79% 29.57 in 10.0 mi Calm Calm - N/A   Overcast
12:15 PM 10.4 °F 4.0 °F 5.0 °F 79% 29.55 in 10.0 mi SE 3.5 mph - N/A   Overcast
12:35 PM 10.4 °F 0.8 °F 5.0 °F 79% 29.54 in 10.0 mi SE 5.8 mph - N/A   Overcast
12:55 PM 10.4 °F -0.4 °F 5.0 °F 79% 29.53 in 10.0 mi SSE 6.9 mph - N/A   Overcast
1:15 PM 14.0 °F 5.1 °F 6.8 °F 73% 29.51 in 10.0 mi SE 5.8 mph - N/A   Overcast
1:35 PM 14.0 °F 2.0 °F 8.6 °F 79% 29.50 in 10.0 mi SSE 9.2 mph - N/A   Overcast
1:55 PM 14.0 °F 2.0 °F 8.6 °F 79% 29.50 in 10.0 mi SE 9.2 mph - N/A   Overcast
2:15 PM 14.0 °F 1.2 °F 10.4 °F 86% 29.49 in 10.0 mi SSE 10.4 mph - N/A   Overcast
2:35 PM 15.8 °F 5.1 °F 10.4 °F 79% 29.49 in 10.0 mi SE 8.1 mph - N/A   Overcast
2:55 PM 15.8 °F 4.2 °F 10.4 °F 79% 29.49 in 10.0 mi SSE 9.2 mph - N/A   Overcast
3:15 PM 15.8 °F 7.2 °F 10.4 °F 79% 29.50 in 10.0 mi SSE 5.8 mph - N/A   Overcast
3:35 PM 15.8 °F 5.1 °F 10.4 °F 79% 29.49 in 10.0 mi SSE 8.1 mph - N/A   Overcast
3:55 PM 15.8 °F 4.2 °F 10.4 °F 79% 29.48 in 10.0 mi SSE 9.2 mph - N/A   Overcast
4:15 PM 15.8 °F 6.1 °F 10.4 °F 79% 29.48 in 10.0 mi SE 6.9 mph - N/A   Overcast
4:35 PM 17.6 °F 6.4 °F 10.4 °F 73% 29.50 in 10.0 mi SE 9.2 mph - N/A   Overcast
4:55 PM 17.6 °F 8.2 °F 10.4 °F 73% 29.49 in 10.0 mi SE 6.9 mph - N/A   Overcast
5:15 PM 17.6 °F 7.3 °F 12.2 °F 79% 29.49 in 10.0 mi SE 8.1 mph - N/A   Overcast
5:35 PM 17.6 °F 6.4 °F 12.2 °F 79% 29.48 in 10.0 mi ESE 9.2 mph - N/A   Overcast
5:55 PM 17.6 °F 7.3 °F 14.0 °F 86% 29.48 in 10.0 mi ESE 8.1 mph - N/A   Overcast
6:15 PM 17.6 °F 7.3 °F 14.0 °F 86% 29.49 in 10.0 mi ESE 8.1 mph - N/A   Overcast
6:35 PM 17.6 °F 6.4 °F 14.0 °F 86% 29.48 in 10.0 mi ESE 9.2 mph - N/A   Overcast
6:55 PM 17.6 °F 7.3 °F 14.0 °F 86% 29.48 in 10.0 mi ESE 8.1 mph - N/A   Overcast
7:15 PM 17.6 °F 7.3 °F 14.0 °F 86% 29.49 in 10.0 mi ESE 8.1 mph - N/A   Overcast
7:35 PM 17.6 °F 6.4 °F 14.0 °F 86% 29.48 in 2.0 mi ESE 9.2 mph - 0.01 in Snow Light Snow
7:55 PM 17.6 °F 6.4 °F 14.0 °F 86% 29.48 in 3.0 mi SE 9.2 mph - 0.03 in Snow Light Snow
8:15 PM 17.6 °F 10.7 °F 14.0 °F 86% 29.50 in 7.0 mi SE 4.6 mph - N/A Snow Light Snow
8:35 PM 17.6 °F 12.3 °F 14.0 °F 86% 29.52 in 1.8 mi SE 3.5 mph - 0.01 in Snow Light Snow
8:55 PM 17.6 °F 9.3 °F 15.8 °F 93% 29.54 in 5.0 mi North 5.8 mph - 0.03 in Snow Light Snow
9:15 PM 17.6 °F 8.2 °F 14.0 °F 86% 29.54 in 10.0 mi NNE 6.9 mph - N/A   Overcast
9:35 PM 17.6 °F 8.2 °F 14.0 °F 86% 29.56 in 8.0 mi North 6.9 mph - N/A Snow Light Snow
9:55 PM 17.6 °F 10.7 °F 14.0 °F 86% 29.57 in 4.0 mi NNW 4.6 mph - 0.02 in Snow Light Snow
10:15 PM 15.8 °F 8.6 °F 14.0 °F 93% 29.57 in 10.0 mi North 4.6 mph - N/A Snow Light Snow
10:35 PM 17.6 °F 9.3 °F 14.0 °F 86% 29.60 in 10.0 mi NNW 5.8 mph - N/A   Overcast
10:55 PM 17.6 °F 7.3 °F 14.0 °F 86% 29.61 in 10.0 mi NNW 8.1 mph - N/A   Overcast
11:15 PM 17.6 °F 6.4 °F 14.0 °F 86% 29.63 in 10.0 mi NW 9.2 mph - N/A   Overcast
11:35 PM 17.6 °F 4.3 °F 14.0 °F 86% 29.65 in 10.0 mi NW 12.7 mph - N/A   Overcast
11:55 PM 17.6 °F 0.1 °F 15.8 °F 93% 29.66 in 7.0 mi NNW 23.0 mph 27.6 mph N/A Snow Light Snow